Date,TemperatureHighF,TemperatureAvgF,TemperatureLowF,DewpointHighF,DewpointAvgF,DewpointLowF,HumidityHigh,HumidityAvg,HumidityLow,PressureMaxIn,PressureMinIn,WindSpeedMaxMPH,WindSpeedAvgMPH,GustSpeedMaxMPH,PrecipitationSumIn
2014-1-1,50.5,35.2,24.8,29.0,22.8,18.3,76,61,35,30.57,30.39,22,6,23,0.00
2014-1-2,27.8,19.0,12.1,18.2,10.1,4.6,82,68,48,30.98,30.56,22,6,22,0.00
2014-1-3,43.3,26.3,9.2,18.7,12.2,3.0,81,58,35,30.97,30.42,26,5,26,0.00
2014-1-4,44.2,40.7,32.7,36.5,32.4,17.0,89,73,49,30.42,30.21,24,6,29,0.04
2014-1-5,39.3,19.8,5.8,36.5,13.7,-5.6,92,77,57,31.02,30.17,23,7,23,0.19
2014-1-6,10.9,3.2,-2.4,-5.4,-9.2,-18.5,70,56,41,31.21,31.02,17,4,19,0.00
2014-1-7,37.2,17.7,-1.2,17.3,5.7,-8.3,81,61,44,31.07,30.70,13,3,18,0.02
2014-1-8,35.2,32.0,26.9,31.5,20.8,11.8,90,65,46,30.75,30.68,12,2,12,0.18
2014-1-9,39.2,35.3,31.8,35.4,32.5,29.8,93,89,85,30.70,30.46,6,2,13,0.04
2014-1-10,54.2,49.0,38.0,51.0,45.7,31.1,94,89,66,30.45,29.95,28,6,28,0.72
2014-1-11,52.2,39.7,27.5,37.3,30.7,21.9,89,72,47,30.46,30.10,12,4,22,0.00
2014-1-12,66.8,54.7,26.3,37.2,27.8,21.3,88,40,21,30.43,30.00,38,13,38,0.24
2014-1-13,58.3,50.1,39.2,46.0,33.8,23.7,74,55,30,30.36,30.02,26,6,26,0.00
2014-1-14,50.1,41.0,30.1,33.6,22.4,13.1,66,48,34,30.66,30.28,21,4,21,0.00
2014-1-15,40.5,31.7,22.9,19.0,14.2,10.7,65,49,37,30.74,30.53,16,4,19,0.00
2014-1-16,52.6,44.9,35.0,28.2,20.7,12.9,62,40,22,30.39,30.29,27,8,29,0.00
2014-1-21,30.1,22.6,16.2,7.7,2.8,-3.7,67,44,26,30.87,30.65,16,3,16,0.00
2014-1-22,43.5,27.4,14.1,19.8,12.2,5.3,83,55,36,30.73,30.57,18,2,18,0.00
2014-1-23,28.2,16.2,2.6,13.7,-3.5,-10.0,64,42,27,31.31,30.73,17,5,19,0.00
2014-1-24,35.6,19.2,0.1,3.3,-3.5,-10.6,77,43,16,31.29,30.48,26,6,26,0.00
2014-1-25,57.5,41.4,26.7,32.6,19.4,2.0,76,43,27,30.48,30.34,21,5,21,0.00
2014-1-26,67.8,45.1,23.6,34.3,26.4,19.2,89,56,21,30.34,30.06,27,4,27,0.00
2014-1-27,19.9,17.9,16.7,-6.9,-8.7,-11.4,33,29,25,30.88,30.82,15,6,15,0.00
2014-1-28,29.3,18.8,9.0,1.2,-3.9,-8.6,63,38,21,31.00,30.85,7,3,15,0.00
2014-1-29,39.8,27.5,6.1,15.2,4.6,-0.5,81,41,24,30.88,30.51,17,5,18,0.00
2014-1-30,47.7,36.5,29.3,26.0,11.1,3.8,44,35,27,30.52,30.23,31,11,31,0.00
2014-1-31,48.9,44.7,30.1,44.2,38.8,23.1,88,80,69,30.33,30.15,15,3,15,0.00
2014-2-1,57.3,40.7,28.2,53.5,37.7,26.2,92,89,80,30.55,30.10,21,4,21,0.18
2014-2-2,28.2,23.5,7.0,26.2,19.3,1.0,92,84,76,30.77,30.56,12,4,17,0.00
2014-2-3,33.7,6.4,-2.4,19.8,1.0,-7.8,87,78,52,30.83,30.75,11,1,11,0.01
2014-2-4,33.1,30.7,25.4,30.8,25.8,12.2,92,83,49,30.55,30.30,19,5,24,0.12
2014-2-5,29.7,17.3,8.3,27.1,11.2,0.1,90,77,69,31.09,30.45,17,6,19,0.00
2014-2-6,18.8,11.3,6.9,6.5,1.3,-1.4,70,64,50,31.12,30.94,13,4,13,0.01
2014-2-7,27.9,19.7,7.6,18.2,10.9,-1.4,77,68,64,30.94,30.67,10,2,10,0.01
2014-2-8,35.3,29.4,24.2,28.4,24.2,18.0,89,81,73,30.67,30.49,12,2,12,0.03
2014-2-9,33.8,31.2,29.0,28.9,26.9,23.3,91,84,76,30.68,30.55,15,4,15,0.01
2014-2-10,29.5,26.3,22.1,24.3,19.0,14.4,86,74,65,30.82,30.67,19,6,19,0.00
2014-2-11,37.2,25.5,19.7,17.1,10.0,6.2,65,52,34,30.89,30.68,9,4,15,0.00
2014-2-12,45.4,27.9,14.1,23.2,13.3,5.3,77,56,35,30.70,30.45,7,1,7,0.00
2014-2-20,72.3,60.8,46.4,56.2,44.0,31.1,72,55,30,30.18,29.83,37,17,37,0.00
2014-2-27,54.7,40.5,18.6,18.5,14.5,5.7,61,37,20,30.58,30.32,16,2,16,0.00
2014-2-28,46.2,38.1,29.7,37.8,25.9,15.5,82,62,45,30.33,30.23,27,5,27,0.03
2014-3-1,61.2,46.9,28.5,49.3,39.2,24.6,92,75,60,30.51,30.36,16,3,16,0.00
2014-3-2,38.3,23.4,13.5,31.4,19.3,8.9,89,84,73,30.75,30.45,20,6,20,0.00
2014-3-3,27.2,16.5,2.6,11.4,5.7,-3.2,80,63,45,30.99,30.81,11,3,15,0.28
2014-3-4,46.0,29.6,11.1,21.7,14.5,5.7,84,57,25,30.76,30.50,7,1,11,0.48
2014-3-5,49.2,35.3,18.4,29.0,18.2,6.3,82,54,18,30.59,30.49,11,2,11,0.15
2014-3-6,54.7,40.3,27.3,31.4,25.6,19.1,80,58,27,30.64,30.47,9,2,11,0.00
2014-3-7,60.2,42.6,22.7,36.4,28.5,18.3,90,61,32,30.47,30.25,19,2,19,0.00
2014-3-8,47.6,39.0,32.4,39.4,33.2,27.3,88,80,68,30.67,30.35,14,2,14,0.04
2014-3-9,54.2,45.4,35.8,44.0,38.9,32.6,90,79,66,30.75,30.54,12,3,12,0.00
2014-3-10,41.5,38.4,33.8,39.1,35.4,29.4,92,89,82,30.55,30.44,7,1,7,0.01
2014-3-11,77.7,64.3,48.9,53.2,47.7,38.1,79,56,40,30.17,29.79,16,7,28,0.00
2014-3-12,54.1,45.2,34.0,38.2,25.9,16.8,76,50,25,30.62,30.08,18,8,32,0.00
2014-3-13,66.3,46.9,24.8,33.0,22.8,19.0,88,47,17,30.65,30.37,12,4,23,0.00
2014-3-14,69.3,55.5,43.3,37.8,32.5,26.5,69,43,27,30.40,30.29,12,6,22,0.00
2014-3-15,70.6,57.7,39.1,53.0,46.6,33.5,92,68,46,30.40,30.12,18,4,18,0.33
2014-3-16,56.3,41.3,30.6,53.6,38.4,26.6,95,89,85,30.51,30.00,27,7,27,1.67
2014-3-17,54.7,34.8,26.1,36.7,26.8,21.9,85,75,33,30.53,30.18,17,3,17,0.13
2014-3-18,69.6,55.4,42.8,42.4,37.8,33.9,77,54,30,30.12,29.85,18,9,34,0.00
2014-3-19,55.3,46.9,38.8,37.5,30.1,25.4,75,53,34,30.60,30.14,16,6,27,0.00
2014-3-20,68.3,49.4,24.7,41.1,23.3,12.8,92,46,12,30.63,30.37,20,3,20,0.00
2014-3-21,73.0,57.8,40.9,46.8,33.3,25.4,58,40,29,30.37,30.18,29,5,29,0.00
2014-3-22,64.5,51.9,41.5,39.0,31.6,23.2,71,49,23,30.61,30.36,18,6,18,0.08
2014-3-23,54.7,42.3,31.3,34.6,24.3,17.7,76,50,33,30.84,30.61,18,5,18,0.01
2014-3-24,54.1,40.5,26.0,32.7,25.0,19.6,84,57,29,30.69,30.50,9,3,17,0.00
2014-3-25,48.3,37.2,27.0,31.4,21.4,12.2,89,58,25,30.81,30.63,12,4,24,0.00
2014-3-26,57.5,39.6,24.4,39.1,25.2,17.3,85,60,25,30.70,30.25,16,6,32,0.16
2014-3-27,68.1,59.8,49.4,57.4,50.2,36.1,83,71,60,30.25,29.96,33,11,33,0.12
2014-3-28,58.9,48.1,40.5,46.0,41.6,35.9,94,79,56,30.45,30.18,23,5,23,0.67
2014-3-29,61.3,46.3,32.7,45.7,36.6,30.4,93,72,39,30.68,30.46,17,2,17,0.01
2014-3-30,73.7,51.7,30.0,43.7,33.4,26.6,92,57,22,30.67,30.33,20,4,20,0.00
2014-3-31,65.2,59.4,54.5,51.0,41.8,30.9,72,53,33,30.30,30.16,27,8,27,0.02
2014-4-1,74.6,60.3,46.8,57.8,48.0,35.5,90,65,42,30.44,30.22,19,4,19,0.02
2014-4-2,78.1,68.9,59.2,63.8,60.9,54.7,89,76,59,30.24,30.03,28,7,28,0.00
2014-4-3,80.5,70.0,51.6,65.2,60.4,44.7,85,72,49,30.18,29.92,33,9,33,1.14
2014-4-4,55.1,45.9,36.0,44.7,33.2,27.8,78,62,39,30.58,30.18,26,7,26,0.00
2014-4-5,35.9,32.3,30.1,28.5,27.0,25.8,85,81,72,30.59,30.55,4,0,4,0.00
2014-4-6,58.7,50.2,44.8,45.0,39.7,33.2,85,68,48,30.47,30.18,10,3,17,0.05
2014-4-7,62.6,52.0,42.2,46.9,43.2,39.5,91,73,47,30.26,30.13,19,4,19,0.50
2014-4-8,58.9,50.4,37.2,45.2,37.3,26.1,88,63,31,30.55,30.23,23,5,31,0.10
2014-4-9,73.7,51.5,28.2,43.4,30.0,24.6,92,53,20,30.62,30.35,22,4,22,0.00
2014-4-10,84.3,73.8,61.3,49.6,44.1,35.8,48,35,24,30.30,30.12,28,10,28,0.02
2014-4-11,86.1,68.0,53.6,56.5,52.3,46.9,86,59,33,30.38,30.24,9,2,18,0.00
2014-4-12,81.1,71.7,61.2,59.1,55.5,51.2,78,58,40,30.30,30.06,27,8,27,0.02
2014-4-13,72.3,65.5,52.0,60.2,56.7,48.3,87,73,59,30.09,29.83,21,11,36,0.26
2014-4-14,50.7,40.2,36.2,47.0,32.4,23.1,92,75,52,30.61,30.10,17,7,24,0.00
2014-4-15,60.2,44.3,21.8,32.8,24.3,17.7,89,51,23,30.70,30.52,19,2,19,0.26
2014-4-16,65.2,50.7,37.8,33.4,29.6,26.3,68,47,25,30.52,30.35,26,6,26,0.00
2014-4-17,73.2,53.6,35.5,43.3,35.4,28.4,87,54,27,30.62,30.48,13,2,13,0.00
2014-4-18,54.4,50.6,45.2,42.9,41.5,38.4,78,71,64,30.62,30.58,7,1,7,0.00
2014-4-19,79.8,66.6,43.8,51.8,44.3,39.3,89,49,28,30.59,30.46,16,3,16,0.00
2014-4-20,79.4,67.8,51.4,56.0,50.0,45.8,87,55,36,30.54,30.36,20,3,20,0.00
2014-4-21,66.8,63.1,56.5,62.2,57.8,52.1,90,83,72,30.38,30.29,15,1,15,0.30
2014-4-22,76.0,61.6,49.5,54.6,46.4,29.1,93,66,20,30.44,30.34,14,3,14,0.01
2014-4-23,83.0,64.6,43.1,50.0,44.1,37.5,82,52,25,30.36,30.14,11,5,21,0.00
2014-4-24,71.3,63.3,53.6,61.0,52.0,43.7,87,67,47,30.26,29.97,16,8,30,0.09
2014-4-25,79.0,59.5,37.2,51.9,37.4,30.2,92,52,18,30.41,30.23,8,2,16,0.00
2014-4-26,84.7,71.3,57.0,61.9,48.8,37.9,65,46,30,30.24,29.96,19,6,27,0.00
2014-4-27,80.3,72.3,59.0,67.2,63.0,52.6,85,73,61,29.96,29.69,28,9,28,0.39
2014-4-28,70.8,61.9,53.3,56.8,45.2,33.9,87,57,27,29.98,29.71,28,8,32,0.00
2014-4-29,56.9,52.2,48.3,42.2,38.9,36.3,76,61,47,30.23,29.97,25,8,25,0.00
2014-4-30,56.2,49.0,39.2,39.1,35.3,31.4,78,60,40,30.47,30.26,17,5,22,0.00
2014-5-1,63.1,49.4,34.9,37.1,33.3,28.8,82,57,33,30.49,30.40,25,4,25,0.00
2014-5-2,69.9,52.6,32.2,46.1,33.8,28.8,92,56,23,30.42,30.30,21,3,21,0.00
2014-5-3,83.2,61.7,38.0,47.5,37.8,31.9,91,51,18,30.38,30.30,25,4,25,0.00
2014-5-4,91.2,76.6,54.1,45.1,42.6,38.4,69,32,16,30.32,30.16,23,8,26,0.00
2014-5-5,91.2,76.1,66.6,56.6,47.4,42.4,58,37,21,30.18,30.06,26,8,26,0.00
2014-5-6,72.0,68.3,64.3,55.0,53.2,52.3,66,59,55,30.11,30.06,15,3,15,0.00
2014-5-7,84.7,75.4,68.1,63.3,59.7,55.3,69,59,45,30.16,30.06,13,7,25,0.00
2014-5-8,81.1,70.0,64.3,65.9,62.1,58.0,91,76,58,30.25,30.10,27,6,27,1.37
2014-5-9,79.2,66.7,60.5,64.2,59.9,56.8,91,80,49,30.28,30.16,16,2,16,0.00
2014-5-13,56.6,52.2,48.6,54.6,47.8,45.5,93,85,76,30.66,30.36,7,4,17,0.03
2014-5-14,54.4,49.9,44.5,46.8,44.3,39.7,90,81,61,30.64,30.57,8,3,17,0.36
2014-5-15,66.1,51.3,37.2,48.2,39.4,33.1,92,67,38,30.62,30.53,12,4,24,0.00
2014-5-16,66.8,51.1,34.1,46.5,39.1,30.6,92,67,38,30.56,30.41,9,3,17,0.02
2014-5-17,64.0,54.3,47.1,52.2,47.6,42.8,88,78,64,30.54,30.42,9,5,16,0.01
2014-5-18,76.1,60.0,46.7,60.6,51.8,43.6,92,76,55,30.55,30.43,9,4,18,0.00
2014-5-19,81.8,72.1,56.6,60.5,57.3,52.8,91,62,38,30.44,30.24,29,10,29,0.00
2014-5-20,84.5,74.7,67.3,63.0,60.2,57.3,75,62,40,30.34,30.25,24,10,27,0.00
2014-5-21,71.3,69.1,66.4,63.3,61.9,59.5,83,78,73,30.38,30.28,20,4,20,0.00
2014-5-22,86.5,72.2,58.1,66.0,60.4,54.8,92,69,39,30.51,30.40,8,2,15,0.00
2014-5-23,85.1,72.5,59.0,66.5,61.4,55.3,91,70,44,30.49,30.40,6,1,13,0.00
2014-5-24,85.3,75.9,66.1,69.6,63.8,56.5,93,68,39,30.45,30.36,14,2,26,0.50
2014-5-25,84.5,72.3,59.2,69.9,62.9,55.4,92,74,54,30.44,30.33,9,2,20,0.00
2014-5-26,80.3,71.6,66.3,68.4,65.0,62.6,89,80,64,30.43,30.35,9,2,24,0.34
2014-5-27,77.6,68.4,63.5,68.3,63.8,61.0,93,86,65,30.40,30.28,9,2,24,0.13
2014-5-28,77.7,69.0,61.8,66.7,62.8,59.2,94,81,65,30.35,30.28,6,2,12,0.02
2014-5-29,81.6,70.4,60.4,71.1,64.2,57.1,93,81,65,30.31,30.24,15,4,26,0.02
2014-5-30,82.4,72.0,66.3,72.1,65.7,63.3,93,81,60,30.35,30.29,28,5,28,0.03
2014-5-31,67.9,65.8,64.2,65.6,63.2,62.1,94,91,88,30.39,30.35,9,2,9,0.00
2014-6-1,84.0,74.2,64.5,69.5,65.9,61.4,92,76,60,30.38,30.21,9,4,22,0.00
2014-6-2,82.0,74.5,66.0,69.2,66.6,62.1,93,77,61,30.41,30.26,11,3,21,0.64
2014-6-3,88.6,79.1,66.4,71.8,68.4,63.3,92,71,49,30.40,30.18,7,4,15,0.00
2014-6-4,89.3,80.1,71.6,71.6,69.1,66.3,86,70,52,30.27,30.10,17,6,31,0.00
2014-6-5,85.3,77.9,70.3,72.3,69.4,66.2,90,76,61,30.31,30.08,19,3,19,0.11
2014-6-6,81.6,75.3,69.3,71.9,69.1,65.3,90,81,63,30.35,30.15,26,3,26,0.55
2014-6-7,82.8,73.8,67.6,70.4,67.0,62.1,90,80,59,30.31,30.14,14,4,28,0.03
2014-6-8,68.6,66.2,64.0,65.2,62.9,61.6,93,89,84,30.41,30.28,10,3,16,0.29
2014-6-9,68.3,64.5,62.6,66.2,62.6,60.5,94,94,93,30.27,30.13,6,4,11,0.00
2014-6-10,75.3,66.1,62.0,64.8,60.9,58.6,94,84,63,30.19,30.02,17,3,20,0.12
2014-6-11,81.4,69.6,61.3,63.2,59.8,56.0,92,73,44,30.27,30.17,16,2,16,0.00
2014-6-12,81.4,67.8,62.7,69.0,62.1,58.5,91,83,58,30.29,30.18,12,1,12,0.00
2014-6-29,88.2,84.2,78.6,75.6,72.8,69.8,75,69,62,30.32,30.24,18,6,18,0.00
2014-6-30,91.0,82.8,76.1,72.5,68.4,62.9,81,64,41,30.29,30.14,28,8,28,0.00
2014-7-1,88.0,80.8,75.6,73.7,69.2,65.0,78,68,55,30.36,30.15,17,4,17,0.00
2014-7-2,75.6,72.5,70.4,66.2,65.4,64.4,84,78,72,30.39,30.34,10,1,10,0.00
2014-7-3,83.8,70.4,53.6,62.5,55.4,48.7,88,61,35,30.60,30.52,10,2,12,0.00
2014-7-4,82.8,64.3,57.8,65.4,57.8,54.0,91,80,53,30.64,30.58,9,1,9,0.00
2014-7-8,91.0,81.7,71.5,72.9,68.1,63.3,78,64,49,30.35,30.22,8,4,18,0.00
2014-7-9,88.4,76.4,65.0,70.4,62.4,57.6,91,65,39,30.42,30.35,4,1,14,0.00
2014-7-10,77.4,70.5,64.0,69.4,65.0,59.7,90,83,73,30.50,30.36,8,2,14,0.55
2014-7-11,89.9,78.6,65.8,72.1,67.4,62.3,91,71,48,30.50,30.43,9,3,19,0.00
2014-7-12,92.1,80.8,67.9,71.0,67.0,63.6,90,65,40,30.51,30.38,9,3,18,0.00
2014-7-13,93.8,82.4,69.4,72.5,67.9,63.3,85,64,39,30.42,30.27,11,4,21,0.00
2014-7-14,90.1,79.9,72.5,74.3,66.6,55.1,86,65,36,30.41,30.25,18,3,18,0.00
2014-7-15,77.9,69.7,61.0,56.1,53.1,48.0,77,57,38,30.49,30.40,17,4,17,0.00
2014-7-16,78.1,64.6,49.9,61.5,53.9,46.2,91,71,39,30.49,30.39,4,1,11,0.00
2014-7-17,71.8,65.3,60.9,61.8,59.6,57.4,90,82,65,30.46,30.40,7,2,15,0.09
2014-7-18,75.1,66.1,57.5,62.1,58.2,54.6,91,77,59,30.47,30.39,9,3,15,0.00
2014-7-19,81.1,68.3,54.2,64.6,58.0,50.4,92,72,50,30.46,30.36,3,1,9,0.00
2014-7-20,84.7,74.1,56.7,66.1,61.8,52.9,92,67,50,30.45,30.34,13,2,13,0.00
2014-7-21,89.9,75.9,61.0,72.1,65.3,56.8,91,71,51,30.46,30.35,5,1,12,0.00
2014-7-22,92.5,81.4,67.1,74.8,70.5,62.4,90,71,53,30.46,30.37,7,1,11,0.09
2014-7-23,91.8,79.3,70.8,76.7,69.6,64.0,88,73,52,30.47,30.36,18,3,40,0.01
2014-7-24,87.0,76.0,63.1,72.6,66.3,59.5,92,73,51,30.47,30.33,10,2,13,0.00
2014-7-25,87.4,74.5,68.8,70.6,67.9,63.7,91,81,55,30.38,30.32,19,4,19,0.00
2014-7-30,70.4,67.8,66.8,67.3,65.2,64.1,93,92,90,30.44,30.42,11,3,11,0.38
2014-7-31,74.6,69.4,66.6,67.7,65.5,63.7,94,88,76,30.48,30.40,12,1,12,0.02
2014-8-1,85.1,73.6,65.2,69.6,63.9,60.8,91,73,49,30.47,30.38,4,1,11,0.00
2014-8-2,89.9,77.6,61.5,70.2,64.3,57.9,92,66,42,30.50,30.41,13,2,13,0.00
2014-8-3,90.1,76.3,63.9,70.5,62.3,53.6,92,66,32,30.52,30.40,15,1,15,0.00
2014-8-4,76.5,66.5,62.6,68.1,61.6,58.7,91,84,71,30.49,30.44,4,0,4,0.00
2014-8-5,90.7,77.6,64.5,67.5,63.1,60.4,90,64,40,30.47,30.39,6,2,12,0.00
2014-8-6,91.6,79.9,63.9,71.9,67.2,60.0,91,67,45,30.41,30.26,16,4,22,0.00
2014-8-7,88.8,80.0,68.9,72.6,69.3,63.7,93,71,49,30.35,30.19,22,4,22,1.07
2014-8-8,88.8,77.6,70.6,76.5,71.2,66.9,91,81,61,30.30,30.22,15,1,15,0.03
2014-8-9,90.1,76.1,70.4,77.4,70.1,66.2,92,83,55,30.40,30.28,33,2,33,0.28
2014-9-6,71.8,68.6,63.9,67.2,63.8,59.0,87,85,83,30.09,29.99,0,0,0,0.00
2014-9-7,63.9,61.0,59.3,59.0,56.3,54.8,86,84,84,30.08,30.04,0,0,1,0.00
2014-9-8,86.5,78.5,66.4,72.2,68.7,59.3,90,73,50,29.97,29.85,1,0,1,0.00
2014-9-9,93.4,81.0,72.3,78.2,72.0,69.8,93,76,53,29.88,29.70,21,1,21,0.09
2014-9-10,91.6,82.6,73.7,72.7,70.4,67.7,82,68,50,29.78,29.62,27,6,28,0.00
2014-9-11,73.7,67.8,64.3,67.9,63.3,58.7,95,85,79,30.04,29.77,16,6,17,0.10
2014-9-12,64.3,58.5,52.3,58.7,54.5,48.2,92,87,78,30.25,30.03,19,7,20,0.04
2014-9-13,52.6,51.6,50.4,48.2,46.6,45.8,86,83,80,30.26,30.22,17,7,17,0.00